Hoquiam, WA
on Friday, December 21, 2012

Friday
Previous Day Next Day
Daily Summary
 ActualAverageRecord
Temperature
Mean Temperature °F 41°F  
Max Temperature 48°F 46°F 55°F (1980)
Min Temperature 37°F 37°F 12°F (1990)
Degree Days
Heating Degree Days 22 24  
Month to date heating degree days 491  
Cooling Degree Days 0 0  
Month to date cooling degree days 0  
Year to date cooling degree days 23  
Moisture
Dew Point 38°F   
Average Humidity 89    
Maximum Humidity 100    
Minimum Humidity 74    
Precipitation
Precipitation 0.16 in 0.33 in 1.56 in (1972)
Month to date precipitation 6.74  
Year to date precipitation 64.33  
Wind
Wind Speed 10 mph   
Max Wind Speed 14 mph   
Max Gust Speed mph   
Visibility 10 miles   
Events Rain   

Key: T is trace of precipitation, MM is missing value
Source: NWS Daily Summary
Time(PST)TemperatureDew PointHumidity Pressure Visibility Wind DirectionWind SpeedGust SpeedPrecipitationEvents Conditions
12:53 AM 37.0°F 35.1°F 93% 29.76 in 8.0 miles ENE 10.4 mph - N/A   Clear
1:53 AM 37.9°F 35.1°F 89% 29.73 in 10.0 miles ENE 12.7 mph - N/A   Clear
2:53 AM 37.9°F 35.1°F 89% 29.73 in 10.0 miles ENE 10.4 mph - N/A   Scattered Clouds
3:53 AM 39.0°F 35.1°F 86% 29.71 in 10.0 miles ENE 11.5 mph - N/A   Overcast
4:53 AM 39.0°F 34.0°F 82% 29.71 in 10.0 miles ENE 8.1 mph - N/A   Overcast
5:31 AM 37.4°F 35.6°F 93% 29.70 in 8.0 miles ENE 11.5 mph - 0.01 in Rain Light Rain
5:53 AM 37.9°F 35.1°F 89% 29.70 in 10.0 miles ENE 10.4 mph - 0.03 in Rain Light Rain
6:05 AM 37.4°F 35.6°F 93% 29.69 in 10.0 miles NE 10.4 mph - 0.00 in Rain Light Rain
6:53 AM 37.9°F 35.1°F 89% 29.69 in 10.0 miles ENE 10.4 mph - 0.00 in   Overcast
7:53 AM 37.9°F 35.1°F 89% 29.68 in 10.0 miles ENE 13.8 mph - 0.02 in Rain Light Rain
8:53 AM 37.9°F 36.0°F 93% 29.70 in 7.0 miles ENE 10.4 mph - 0.01 in Rain Light Rain
9:05 AM 37.4°F 37.4°F 100% 29.70 in 7.0 miles NE 6.9 mph - 0.01 in Rain Light Rain
9:53 AM 39.0°F 37.0°F 93% 29.71 in 7.0 miles NNE 9.2 mph - 0.05 in Rain Light Rain
10:53 AM 41.0°F 37.9°F 89% 29.73 in 10.0 miles ENE 11.5 mph - 0.01 in   Overcast
11:53 AM 43.0°F 39.9°F 89% 29.72 in 10.0 miles East 12.7 mph - 0.00 in   Mostly Cloudy
12:20 PM 44.6°F 41.0°F 87% 29.70 in 10.0 miles ENE 5.8 mph - 0.02 in Rain Light Rain
12:53 PM 45.0°F 42.1°F 90% 29.71 in 10.0 miles East 9.2 mph - 0.02 in   Overcast
1:23 PM 46.4°F 42.8°F 87% 29.69 in 10.0 miles East 10.4 mph - N/A   Overcast
1:53 PM 46.9°F 41.0°F 80% 29.70 in 10.0 miles East 9.2 mph - N/A   Scattered Clouds
2:53 PM 48.0°F 39.9°F 74% 29.69 in 10.0 miles ENE 6.9 mph - N/A   Mostly Cloudy
3:53 PM 46.0°F 39.9°F 79% 29.70 in 10.0 miles ENE 8.1 mph - N/A   Overcast
4:53 PM 44.1°F 39.0°F 82% 29.70 in 10.0 miles NE 6.9 mph - N/A   Clear
5:53 PM 41.0°F 37.9°F 89% 29.67 in 10.0 miles NE 8.1 mph - N/A   Clear
6:53 PM 39.0°F 37.0°F 93% 29.66 in 10.0 miles NE 5.8 mph - N/A   Clear
7:53 PM 39.0°F 37.0°F 93% 29.66 in 10.0 miles ENE 5.8 mph - N/A   Clear
8:53 PM 39.9°F 37.9°F 93% 29.65 in 10.0 miles ENE 9.2 mph - N/A   Partly Cloudy
9:53 PM 39.9°F 37.9°F 93% 29.64 in 10.0 miles ENE 6.9 mph - N/A   Overcast
10:53 PM 42.1°F 39.0°F 89% 29.63 in 10.0 miles NE 8.1 mph - 0.00 in   Overcast
11:53 PM 42.1°F 39.0°F 89% 29.61 in 10.0 miles ENE 9.2 mph - 0.02 in   Overcast
Moon Phase
Dec. 21 Dec. 28 Jan. 04 Jan. 11 Jan. 18
Sunrise:07:58 AM (PST) Moon Rise:12:33 PM (PST)
Sunset:04:29 PM (PST) Moon Set:01:35 AM (PST)

Copyright © 2014 The Weather Underground, Inc.